Location: Unspecified
(52.1384°N, 8.6525°W)
Time: 10:49:21
(UTC+00:00)

XW-2F - Pass Details

Date: 25 January 2021
Orbit: 500 x 519 km, 97.5° (Epoch: 24 February)

Event Time Altitude Azimuth Distance (km) Brightness Sun altitude
Rises 19:08:50 0° 218° (SW) 2,614 ? -18.0°
Reaches altitude 10° 19:12:14 10° 252° (WSW) 1,742 ? -18.5°
Maximum altitude 19:13:35 12° 273° (W) 1,646 ? -18.7°
Drops below altitude 10° 19:14:56 10° 294° (WNW) 1,751 ? -18.9°
Sets 19:18:24 0° 329° (NNW) 2,652 ? -19.5°
